GW6014 Weather Reports


Display with metric or nautical units.
time (UTC)temp
F
wind
direction
speed
MPH
gust
MPH
rain 1hr
in
rain 24hr
in
rain mn
in
humidity
%
barometer
mb
20260504231213 74 234 2.0 3.0 0.00 0.06 0.06 55 1003.6
20260504230709 74 230 2.0 6.0 0.00 0.06 0.06 53 1003.6
20260504230208 75 251 3.0 7.0 0.00 0.06 0.06 52 1003.8
20260504225706 75 211 6.0 11.0 0.00 0.06 0.06 51 1003.8
20260504225201 75 196 6.0 8.0 0.00 0.06 0.06 51 1003.8
20260504224659 76 269 3.0 7.0 0.00 0.06 0.06 53 1004.0
20260504224156 75 238 5.0 9.0 0.00 0.06 0.06 54 1004.0
20260504223653 75 225 5.0 11.0 0.00 0.06 0.06 54 1004.2
20260504223148 75 221 6.0 10.0 0.00 0.06 0.06 55 1004.0
20260504222645 76 188 4.0 7.0 0.00 0.06 0.06 54 1004.1
20260504222142 77 196 3.0 8.0 0.00 0.06 0.06 54 1004.1
20260504221640 77 246 6.0 10.0 0.00 0.06 0.06 53 1004.1
20260504221136 76 115 2.0 9.0 0.00 0.06 0.06 53 1004.1
20260504220633 76 235 4.0 8.0 0.00 0.06 0.06 54 1004.3
20260504220131 76 260 6.0 9.0 0.00 0.06 0.06 53 1004.2
20260504215626 76 230 3.0 4.0 0.00 0.06 0.06 55 1004.2
20260504215124 76 233 4.0 7.0 0.00 0.06 0.06 54 1004.3
20260504214620 75 187 3.0 8.0 0.00 0.06 0.06 55 1004.4
20260504214116 75 231 4.0 9.0 0.00 0.06 0.06 55 1004.3
20260504213613 75 234 6.0 10.0 0.00 0.06 0.06 54 1004.6
20260504213110 74 235 4.0 9.0 0.00 0.06 0.06 57 1004.6
20260504212606 74 245 6.0 11.0 0.00 0.06 0.06 56 1004.7
20260504212103 74 77 4.0 15.0 0.00 0.06 0.06 58 1004.5
20260504211600 73 202 5.0 10.0 0.00 0.06 0.06 61 1004.7
20260504211057 73 234 5.0 8.0 0.00 0.06 0.06 60 1004.8
20260504210554 72 245 4.0 8.0 0.00 0.06 0.06 63 1004.8
20260504210050 72 251 3.0 9.0 0.00 0.06 0.06 63 1004.9
20260504205548 71 194 1.0 4.0 0.00 0.06 0.06 64 1004.9
20260504205046 71 252 4.0 8.0 0.00 0.06 0.06 64 1005.0
20260504204544 73 243 2.0 9.0 0.00 0.06 0.06 63 1004.9
20260504204043 72 191 5.0 9.0 0.00 0.06 0.06 63 1005.1
20260504203540 72 255 3.0 6.0 0.00 0.06 0.06 68 1005.3
20260504203038 73 202 3.0 6.0 0.00 0.06 0.06 64 1005.2
20260504202533 73 79 2.0 6.0 0.00 0.06 0.06 63 1005.3
20260504202030 73 130 3.0 4.0 0.00 0.06 0.06 62 1005.3
20260504201527 70 180 2.0 2.0 0.00 0.06 0.06 68 1005.2
20260504201025 69 291 2.0 7.0 0.00 0.06 0.06 68 1005.6
20260504200521 68 202 2.0 3.0 0.00 0.06 0.06 70 1005.5
20260504200018 67 212 3.0 7.0 0.00 0.06 0.06 72 1005.2
20260504195514 67 282 1.0 7.0 0.00 0.06 0.06 69 1004.9
20260504195011 67 181 3.0 6.0 0.00 0.06 0.06 67 1004.7
20260504194507 67 75 5.0 8.0 0.00 0.06 0.06 70 1004.5
20260504194002 65 54 4.0 7.0 0.05 0.06 0.06 71 1005.0
20260504193500 63 188 2.0 7.0 0.05 0.06 0.06 73 1005.3
20260504192959 62 223 1.0 2.0 0.00 0.05 0.05 86 1006.8
20260504192456 63 221 2.0 2.0 0.00 0.05 0.05 84 1007.0
20260504191955 63 302 0.0 2.0 0.07 0.05 0.05 80 1006.7
20260504191452 63 180 1.0 1.0 0.12 0.04 0.04 80 1006.6
20260504190947 63 330 1.0 2.0 0.12 0.04 0.04 80 1006.7
20260504190443 63 288 1.0 4.0 0.07 0.02 0.02 81 1007.0
20260504185940 63 10 0.0 0.0 0.12 0.02 0.02 81 1007.6
20260504185437 64 66 0.0 0.0 0.05 0.01 0.01 77 1007.5
20260504184933 66 15 1.0 1.0 0.00 0.00 0.00 72 1007.6
20260504184429 66 5 0.0 1.0 0.00 0.00 0.00 67 1007.5
20260504183925 67 244 1.0 3.0 0.00 0.00 0.00 65 1007.6
20260504183422 67 237 2.0 3.0 0.00 0.00 0.00 65 1008.1
20260504182920 67 253 1.0 2.0 0.00 0.00 0.00 66 1007.9
20260504182417 67 29 0.0 2.0 0.00 0.00 0.00 66 1008.1
20260504181914 67 262 2.0 3.0 0.00 0.00 0.00 66 1007.6
20260504181411 67 245 2.0 4.0 0.00 0.00 0.00 65 1007.2
20260504180910 67 263 2.0 4.0 0.00 0.00 0.00 64 1007.1
20260504180408 67 181 4.0 7.0 0.00 0.00 0.00 65 1007.1
20260504175906 67 210 3.0 4.0 0.00 0.00 0.00 65 1007.0
20260504175403 67 205 4.0 8.0 0.00 0.00 0.00 65 1006.9
20260504174900 67 222 5.0 7.0 0.00 0.00 0.00 67 1006.9
20260504174358 67 164 4.0 8.0 0.00 0.00 0.00 66 1006.7
20260504173855 67 243 4.0 7.0 0.00 0.00 0.00 66 1006.5
20260504173351 67 212 3.0 6.0 0.00 0.00 0.00 66 1006.7
20260504172849 68 176 2.0 6.0 0.00 0.00 0.00 66 1006.7
20260504172345 68 222 2.0 8.0 0.00 0.00 0.00 65 1007.0
20260504171841 70 229 10.0 11.0 0.00 0.00 0.00 62 1007.3
20260504171338 68 276 2.0 8.0 0.00 0.00 0.00 65 1006.2
20260504170835 67 221 4.0 9.0 0.00 0.00 0.00 66 1007.1
20260504170332 67 256 7.0 9.0 0.00 0.00 0.00 69 1007.0
20260504160250 68 206 6.0 15.0 0.00 0.00 0.00 57 1008.5
20260504150716 71 245 6.0 13.0 0.00 0.00 0.00 51 1008.6
20260504150213 70 282 6.0 11.0 0.00 0.00 0.00 53 1008.4
20260504141142 68 204 5.0 7.0 0.00 0.00 0.00 61 1008.7
20260504140639 68 231 9.0 11.0 0.00 0.00 0.00 61 1008.6
20260504140134 67 252 7.0 9.0 0.00 0.00 0.00 63 1008.8
20260504130602 62 227 7.0 13.0 0.00 0.00 0.00 72 1009.1
20260504110450 58 217 0.0 2.0 0.00 0.00 0.00 77 1009.5
20260504100412 58 350 1.0 3.0 0.00 0.00 0.00 76 1009.1
20260504081806 59 338 0.0 2.0 0.00 0.00 0.00 79 1009.7
20260504081302 58 44 1.0 3.0 0.00 0.00 0.00 80 1009.5
20260504080758 58 326 1.0 2.0 0.00 0.00 0.00 82 1009.9
20260504080255 58 130 1.0 2.0 0.00 0.00 0.00 82 1009.8
20260504070223 58 32 1.0 1.0 0.00 0.00 0.00 80 1010.4
20260504060143 62 63 8.0 14.0 0.00 0.00 0.00 62 1011.4
20260504050611 63 187 6.0 8.0 0.00 0.00 0.00 59 1009.3
20260504050108 63 250 2.0 3.0 0.00 0.00 0.00 61 1009.7
20260504045605 63 213 1.0 2.0 0.00 0.00 0.00 60 1009.7
20260504045100 63 329 2.0 8.0 0.00 0.00 0.00 58 1009.2
20260504044558 62 205 8.0 9.0 0.00 0.00 0.00 59 1009.0
20260504044054 62 123 1.0 6.0 0.00 0.00 0.00 62 1009.1
20260504043552 63 316 1.0 1.0 0.00 0.00 0.00 61 1009.1
20260504043049 63 164 1.0 3.0 0.00 0.00 0.00 59 1009.4
20260504042546 63 229 3.0 9.0 0.00 0.00 0.00 58 1009.9
20260504042043 63 224 6.0 9.0 0.00 0.00 0.00 58 1010.1
20260504041539 62 233 5.0 8.0 0.00 0.00 0.00 58 1010.1
20260504041035 62 231 3.0 4.0 0.00 0.00 0.00 59 1010.2
20260504040533 63 202 4.0 6.0 0.00 0.00 0.00 58 1010.1
20260504040029 63 234 6.0 8.0 0.00 0.00 0.00 57 1010.4
20260504035526 63 215 7.0 9.0 0.00 0.00 0.00 56 1010.4
20260504035022 63 210 6.0 8.0 0.00 0.00 0.00 56 1010.3
20260504034520 63 204 4.0 6.0 0.00 0.00 0.00 56 1010.2
20260504034017 63 203 3.0 4.0 0.00 0.00 0.00 56 1010.5
20260504033515 63 226 2.0 3.0 0.00 0.00 0.00 56 1010.6
20260504033012 63 197 2.0 3.0 0.00 0.00 0.00 57 1010.5
20260504032509 63 300 1.0 3.0 0.00 0.00 0.00 57 1010.6
20260504032005 63 230 2.0 3.0 0.00 0.00 0.00 56 1010.6
20260504031502 63 231 0.0 1.0 0.00 0.00 0.00 58 1010.4
20260504030959 63 204 2.0 3.0 0.00 0.00 0.00 56 1010.5
20260504030456 64 237 2.0 3.0 0.00 0.00 0.00 56 1010.6
20260504025952 64 229 3.0 4.0 0.00 0.00 0.00 55 1010.6
20260504025449 64 231 4.0 4.0 0.00 0.00 0.00 54 1010.7
20260504024946 64 231 4.0 6.0 0.00 0.00 0.00 54 1010.4
20260504024443 65 228 3.0 9.0 0.00 0.00 0.00 53 1010.4
20260504023940 65 227 6.0 7.0 0.00 0.00 0.00 52 1010.4
20260504023436 65 229 4.0 9.0 0.00 0.00 0.00 52 1010.4
20260504022932 65 209 8.0 9.0 0.00 0.00 0.00 52 1010.3
20260504022429 65 209 4.0 8.0 0.00 0.00 0.00 52 1010.5
20260504021925 65 243 4.0 6.0 0.00 0.00 0.00 53 1010.6
20260504021423 65 229 4.0 4.0 0.00 0.00 0.00 53 1010.4
20260504020920 65 238 4.0 7.0 0.00 0.00 0.00 52 1010.4
20260504020416 66 246 3.0 4.0 0.00 0.00 0.00 51 1010.2
20260504015913 66 200 4.0 6.0 0.00 0.00 0.00 50 1010.2
20260504015409 67 247 5.0 7.0 0.00 0.00 0.00 49 1010.2
20260504014905 67 237 2.0 8.0 0.00 0.00 0.00 48 1010.2
20260504014401 67 215 6.0 9.0 0.00 0.00 0.00 47 1010.2
20260504013858 67 213 5.0 7.0 0.00 0.00 0.00 47 1009.9
20260504013357 67 108 2.0 6.0 0.00 0.00 0.00 47 1010.3
20260504012853 67 238 9.0 11.0 0.00 0.00 0.00 47 1009.8
20260504012351 67 180 6.0 10.0 0.00 0.00 0.00 48 1009.8
20260504011848 67 219 8.0 9.0 0.00 0.00 0.00 48 1009.9
20260504011344 67 213 4.0 6.0 0.00 0.00 0.00 49 1010.0
20260504010840 67 173 3.0 4.0 0.00 0.00 0.00 50 1009.8
20260504010336 67 131 2.0 4.0 0.00 0.00 0.00 51 1009.9
20260504005833 68 224 2.0 3.0 0.00 0.00 0.00 50 1009.9
20260504005330 69 231 2.0 3.0 0.00 0.00 0.00 48 1009.8
20260504004827 70 210 2.0 3.0 0.00 0.00 0.00 44 1009.9
20260504004325 70 205 4.0 7.0 0.00 0.00 0.00 42 1010.0
20260504003821 70 216 6.0 8.0 0.00 0.00 0.00 41 1009.9
20260504003318 70 230 3.0 7.0 0.00 0.00 0.00 42 1009.8
20260504002815 71 266 4.0 9.0 0.00 0.00 0.00 41 1010.0
20260504002312 71 229 6.0 9.0 0.00 0.00 0.00 40 1009.9
20260504001809 71 189 8.0 10.0 0.00 0.00 0.00 40 1010.0
20260504001306 71 255 5.0 7.0 0.00 0.00 0.00 41 1010.0
20260504000803 72 197 9.0 11.0 0.00 0.00 0.00 39 1010.0
20260504000300 72 223 5.0 11.0 0.00 0.00 0.00 39 1009.9
20260503235758 72 250 8.0 10.0 0.00 0.00 0.00 39 1009.9
20260503235255 73 277 7.0 10.0 0.00 0.00 0.00 38 1010.1
20260503234753 73 224 4.0 13.0 0.00 0.00 0.00 38 1010.2
20260503234250 73 248 4.0 11.0 0.00 0.00 0.00 39 1010.2
20260503233747 73 234 8.0 10.0 0.00 0.00 0.00 37 1010.3
20260503233243 73 209 11.0 14.0 0.00 0.00 0.00 37 1010.3
20260503232740 74 207 5.0 8.0 0.00 0.00 0.00 38 1010.2
20260503232237 74 240 9.0 10.0 0.00 0.00 0.00 36 1010.1
20260503231736 74 233 10.0 13.0 0.00 0.00 0.00 36 1010.3